星链-4064 (STARLINK-4064 )

导读

STARLINK-4064是美国SpaceX公司星链(Starlink)低轨互联网星座的组成卫星,于2022年5月18日发射升空。作为星链第二代组网卫星,它运行在近地轨道,搭载Ku/Ka波段通信载荷与霍尔推进器,具备自主避撞能力,旨在为全球提供高速低延迟卫星互联网服务,填补偏远地区网络覆盖空白,是星链大规模星座部署中的一颗量产型卫星,设计寿命约5-7年,退役后将受控坠入大气层焚毁。

基本信息
目录编号:
52665
目录名称:
STARLINK-4064
国际标识:
2022-053K
轨道中心:
EARTH
卫星名称:
星链-4064
卫星全名:
星链-4064 (STARLINK-4064 )
卫星状态:
在轨 (已飞行1491 天)
发射日期:
2022-05-18 UTC
国别 :
美国 (US)
星等 :
--
轨道信息
数据来源 国际轨道数据 AOE轨道数据
星历时间 2026-06-17T08:31:32+0800
13小时前
查看轨道信息
2026-06-12T00:00:00+0800
5天前
查看轨道信息
半长轴 6917.927km 6917.829km
偏心率 0.0001242 0.0001295
轨道倾角 53.161° 53.159°
近地点辐角 91.636° 101.400°
升交点赤经 68.108° 92.179°
平近点角 268.477° 314.304°
近地点 538.93km 538.796km
远地点 540.65km 540.588km
周期 95.439分钟 95.436分钟
每日圈数 15.08825 15.08857
详细信息
固有亮度:
5
最大亮度:
2.5
卫星平台:
Starlink v1.5
覆盖范围:
全球
运营商:
太空探索技术公司
运营商所在国:
美国
制造商(研发单位):
太空探索技术公司
制造商所在国:
美国
使用方式:
暂无
卫星简介
星链(Starlink)计划是由太空探索技术公司(SpaceX)提出的一个巨型低轨卫星互联网星座项目,计划在2019年至2024年间在太空搭建由约1.2万颗卫星组成的“星链”网络,其中1584颗将部署在地球上空550千米处的近地轨道,并从2020年开始工作。该卫星仍在工作。
2D轨道图
3D轨道图
轨道高度分析图
轨道倾角分析图
轨道综合分析图
查看轨道综合分析图